• In Deutschland
  • Länderverzeichnis
  • Für 7 Tage
  • Wassertemperatur
  • Satellitenkarten
  • Wetterkarte
  • Widgets
  • user-avatar
    Anmelden

    Stündliche Wetter Ondjiwa

    Heute, 30 Mai, Dienstag

    Zeit Temperatur Niederschläge Wind Luftdruck Luftfeuchtigkeit
    00:00 +19°C° 0 mm 3 m/S 671 mmHg 39%
    01:00 +19°C° 0 mm 3 m/S 671 mmHg 40%
    02:00 +18°C° 0 mm 2 m/S 670 mmHg 42%
    03:00 +17°C° 0 mm 2 m/S 670 mmHg 44%
    04:00 +16°C° 0 mm 2 m/S 670 mmHg 46%
    05:00 +16°C° 0 mm 2 m/S 670 mmHg 47%
    06:00 +16°C° 0 mm 2 m/S 670 mmHg 47%
    07:00 +16°C° 0 mm 2 m/S 671 mmHg 47%
    08:00 +19°C° 0 mm 3 m/S 671 mmHg 39%
    09:00 +23°C° 0 mm 4 m/S 672 mmHg 31%
    10:00 +27°C° 0 mm 5 m/S 673 mmHg 23%
    11:00 +29°C° 0 mm 5 m/S 672 mmHg 21%
    12:00 +30°C° 0 mm 4 m/S 672 mmHg 19%
    13:00 +32°C° 0 mm 4 m/S 672 mmHg 17%
    14:00 +32°C° 0 mm 4 m/S 671 mmHg 17%
    15:00 +32°C° 0 mm 4 m/S 671 mmHg 17%
    16:00 +31°C° 0 mm 3 m/S 670 mmHg 17%
    17:00 +28°C° 0 mm 3 m/S 670 mmHg 21%
    18:00 +25°C° 0 mm 3 m/S 670 mmHg 24%
    19:00 +21°C° 0 mm 3 m/S 670 mmHg 28%
    20:00 +21°C° 0 mm 3 m/S 670 mmHg 29%
    21:00 +20°C° 0 mm 3 m/S 670 mmHg 29%
    22:00 +19°C° 0 mm 3 m/S 670 mmHg 30%
    23:00 +19°C° 0 mm 3 m/S 670 mmHg 33%

    Morgen, 31 Mai, Mittwoch

    Zeit Temperatur Niederschläge Wind Luftdruck Luftfeuchtigkeit
    00:00 +18°C° 0 mm 3 m/S 670 mmHg 37%
    01:00 +18°C° 0 mm 4 m/S 670 mmHg 40%
    02:00 +17°C° 0 mm 3 m/S 670 mmHg 44%
    03:00 +17°C° 0 mm 3 m/S 670 mmHg 49%
    04:00 +16°C° 0 mm 3 m/S 670 mmHg 53%
    05:00 +16°C° 0 mm 3 m/S 670 mmHg 54%
    06:00 +16°C° 0 mm 3 m/S 670 mmHg 55%
    07:00 +16°C° 0 mm 3 m/S 671 mmHg 56%
    08:00 +19°C° 0 mm 4 m/S 672 mmHg 46%
    09:00 +23°C° 0 mm 5 m/S 672 mmHg 36%
    10:00 +27°C° 0 mm 6 m/S 673 mmHg 27%
    11:00 +28°C° 0 mm 5 m/S 673 mmHg 24%
    12:00 +30°C° 0 mm 4 m/S 672 mmHg 22%
    13:00 +32°C° 0 mm 4 m/S 672 mmHg 19%
    14:00 +32°C° 0 mm 4 m/S 671 mmHg 18%
    15:00 +31°C° 0 mm 3 m/S 671 mmHg 18%
    16:00 +30°C° 0 mm 3 m/S 670 mmHg 17%
    17:00 +27°C° 0 mm 3 m/S 670 mmHg 20%
    18:00 +25°C° 0 mm 3 m/S 670 mmHg 23%
    19:00 +21°C° 0 mm 3 m/S 670 mmHg 26%
    20:00 +20°C° 0 mm 3 m/S 670 mmHg 28%
    21:00 +19°C° 0 mm 3 m/S 670 mmHg 29%
    22:00 +18°C° 0 mm 4 m/S 671 mmHg 31%
    23:00 +18°C° 0 mm 4 m/S 670 mmHg 34%

    übermorgen, 1 Juni, Donnerstag

    Zeit Temperatur Niederschläge Wind Luftdruck Luftfeuchtigkeit
    00:00 +17°C° 0 mm 4 m/S 670 mmHg 38%
    01:00 +17°C° 0 mm 4 m/S 670 mmHg 41%
    02:00 +16°C° 0 mm 3 m/S 670 mmHg 43%
    03:00 +16°C° 0 mm 3 m/S 669 mmHg 46%
    04:00 +14°C° 0 mm 3 m/S 669 mmHg 48%
    05:00 +14°C° 0 mm 3 m/S 670 mmHg 49%
    06:00 +14°C° 0 mm 3 m/S 670 mmHg 50%
    07:00 +14°C° 0 mm 3 m/S 671 mmHg 51%
    08:00 +18°C° 0 mm 4 m/S 672 mmHg 44%
    09:00 +22°C° 0 mm 5 m/S 672 mmHg 36%
    10:00 +26°C° 0 mm 6 m/S 673 mmHg 29%
    11:00 +27°C° 0 mm 5 m/S 673 mmHg 25%
    12:00 +29°C° 0 mm 4 m/S 672 mmHg 22%
    13:00 +30°C° 0 mm 4 m/S 672 mmHg 19%
    14:00 +30°C° 0 mm 3 m/S 671 mmHg 18%
    15:00 +30°C° 0 mm 3 m/S 670 mmHg 18%
    16:00 +29°C° 0 mm 3 m/S 670 mmHg 17%
    17:00 +27°C° 0 mm 3 m/S 670 mmHg 21%
    18:00 +24°C° 0 mm 3 m/S 670 mmHg 26%
    19:00 +20°C° 0 mm 3 m/S 669 mmHg 30%
    20:00 +19°C° 0 mm 3 m/S 670 mmHg 31%
    21:00 +18°C° 0 mm 3 m/S 670 mmHg 32%
    22:00 +18°C° 0 mm 3 m/S 670 mmHg 34%
    23:00 +17°C° 0 mm 3 m/S 670 mmHg 36%

    2 Juni, Freitag

    Zeit Temperatur Niederschläge Wind Luftdruck Luftfeuchtigkeit
    00:00 +16°C° 0 mm 3 m/S 670 mmHg 37%
    01:00 +16°C° 0 mm 3 m/S 669 mmHg 39%
    02:00 +14°C° 0 mm 3 m/S 669 mmHg 41%
    03:00 +14°C° 0 mm 3 m/S 669 mmHg 42%
    04:00 +13°C° 0 mm 3 m/S 669 mmHg 44%
    05:00 +13°C° 0 mm 3 m/S 669 mmHg 46%
    06:00 +13°C° 0 mm 3 m/S 670 mmHg 47%
    07:00 +13°C° 0 mm 3 m/S 670 mmHg 48%
    08:00 +17°C° 0 mm 3 m/S 671 mmHg 40%
    09:00 +21°C° 0 mm 4 m/S 672 mmHg 32%
    10:00 +26°C° 0 mm 5 m/S 673 mmHg 24%
    11:00 +27°C° 0 mm 4 m/S 672 mmHg 21%
    12:00 +28°C° 0 mm 4 m/S 672 mmHg 19%
    13:00 +30°C° 0 mm 3 m/S 671 mmHg 16%
    14:00 +30°C° 0 mm 3 m/S 671 mmHg 15%
    15:00 +29°C° 0 mm 2 m/S 670 mmHg 15%
    16:00 +29°C° 0 mm 2 m/S 670 mmHg 14%
    17:00 +26°C° 0 mm 2 m/S 669 mmHg 18%
    18:00 +23°C° 0 mm 2 m/S 669 mmHg 21%
    19:00 +19°C° 0 mm 3 m/S 669 mmHg 25%
    20:00 +19°C° 0 mm 3 m/S 669 mmHg 26%
    21:00 +18°C° 0 mm 3 m/S 669 mmHg 27%
    22:00 +17°C° 0 mm 3 m/S 670 mmHg 28%
    23:00 +17°C° 0 mm 3 m/S 669 mmHg 29%

    3 Juni, Samstag

    Zeit Temperatur Niederschläge Wind Luftdruck Luftfeuchtigkeit
    00:00 +16°C° 0 mm 3 m/S 669 mmHg 30%
    01:00 +16°C° 0 mm 3 m/S 669 mmHg 32%
    02:00 +14°C° 0 mm 3 m/S 669 mmHg 34%
    03:00 +13°C° 0 mm 3 m/S 668 mmHg 36%
    04:00 +14°C° 0 mm 2 m/S 668 mmHg 38%
    05:00 +14°C° 0 mm 2 m/S 669 mmHg 40%
    06:00 +13°C° 0 mm 2 m/S 669 mmHg 43%
    07:00 +13°C° 0 mm 2 m/S 670 mmHg 45%
    08:00 +17°C° 0 mm 2 m/S 671 mmHg 39%
    09:00 +21°C° 0 mm 3 m/S 671 mmHg 33%
    10:00 +26°C° 0 mm 3 m/S 672 mmHg 26%
    11:00 +27°C° 0 mm 2 m/S 672 mmHg 23%
    12:00 +29°C° 0 mm 2 m/S 671 mmHg 20%
    13:00 +31°C° 0 mm 1 m/S 671 mmHg 17%
    14:00 +30°C° 0 mm 1 m/S 670 mmHg 16%
    15:00 +30°C° 0 mm 1 m/S 670 mmHg 16%
    16:00 +30°C° 0 mm 1 m/S 669 mmHg 16%
    17:00 +26°C° 0 mm 1 m/S 669 mmHg 21%
    18:00 +23°C° 0 mm 1 m/S 669 mmHg 26%
    19:00 +19°C° 0 mm 1 m/S 668 mmHg 31%
    20:00 +18°C° 0 mm 2 m/S 668 mmHg 31%
    21:00 +18°C° 0 mm 2 m/S 669 mmHg 32%
    22:00 +17°C° 0 mm 2 m/S 669 mmHg 32%
    23:00 +17°C° 0 mm 2 m/S 669 mmHg 33%

    4 Juni, Sonntag

    Zeit Temperatur Niederschläge Wind Luftdruck Luftfeuchtigkeit
    00:00 +17°C° 0 mm 2 m/S 669 mmHg 35%
    01:00 +16°C° 0 mm 3 m/S 669 mmHg 36%
    02:00 +16°C° 0 mm 3 m/S 669 mmHg 39%
    03:00 +14°C° 0 mm 3 m/S 668 mmHg 43%
    04:00 +14°C° 0 mm 3 m/S 668 mmHg 46%
    05:00 +13°C° 0 mm 3 m/S 669 mmHg 49%
    06:00 +13°C° 0 mm 3 m/S 669 mmHg 52%
    07:00 +13°C° 0 mm 3 m/S 670 mmHg 55%
    08:00 +18°C° 0 mm 3 m/S 671 mmHg 47%
    09:00 +22°C° 0 mm 4 m/S 671 mmHg 39%
    10:00 +26°C° 0 mm 4 m/S 672 mmHg 31%
    11:00 +28°C° 0 mm 4 m/S 671 mmHg 27%
    12:00 +29°C° 0 mm 3 m/S 671 mmHg 23%
    13:00 +31°C° 0 mm 3 m/S 670 mmHg 19%
    14:00 +31°C° 0 mm 3 m/S 670 mmHg 19%
    15:00 +31°C° 0 mm 2 m/S 670 mmHg 19%
    16:00 +31°C° 0 mm 2 m/S 669 mmHg 18%
    17:00 +28°C° 0 mm 2 m/S 669 mmHg 23%
    18:00 +25°C° 0 mm 2 m/S 669 mmHg 29%
    19:00 +20°C° 0 mm 2 m/S 668 mmHg 34%
    20:00 +20°C° 0 mm 2 m/S 669 mmHg 35%
    21:00 +20°C° 0 mm 2 m/S 669 mmHg 37%
    22:00 +19°C° 0 mm 2 m/S 669 mmHg 38%
    23:00 +18°C° 0 mm 2 m/S 669 mmHg 40%
    Mehr zeigen